sat.trackr.live / text

‹ back to catalog

STARLINK-31213

NORAD 58860 · 2024-019H

PAYLOAD ACTIVE UNKNOWN

§ Identity

Operator
Country
US
Launch date
2024-01-29
Launch site
AFETR
Launch vehicle
Mass (kg)
RCS (m²)

Purposes: comms

External: N2YO · Heavens-Above · Gunter

§ Orbital elements

Epoch: 2026-05-25T03:08:13.312032Z

Period
94.27 min
Inclination
43.0017°
Eccentricity
0.0001291
Mean motion
15.27576642 rev/d
Perigee alt
482.2 km
Apogee alt
483.9 km
Semi-major
6,861.2 km
B*
5.4671e-5
RAAN
177.1758°
Arg perigee
274.9971°
Mean anomaly
85.0734°
Rev number
13,077

§ Raw data

STARLINK-312131 58860U 24019H   26145.13070963  .00001242  00000+0  54671-4 0  99952 58860  43.0017 177.1758 0001291 274.9971  85.0734 15.27576642130772

JSON: /api/v1/satellites/58860 · /tle

For live sub-satellite position, see the globe view (requires WebGL).

§ Visibility from observer

Set your observer location to see the next 7 days of passes ≥ 10°. The values pass through the URL so the page stays shareable.

No JS? Fill the form by hand. The geolocation button needs JavaScript.